This demonstration page uses our WeatherBlox Daily Observations layout. Learn more.

Left ArrowRight Arrow

Hourly Observations for February 11, 2015

Temp ( °F °C ) Dew Point ( °F °C ) Humidity (%) Winds ( mph kmh ) Pressure ( in mb ) Visibility ( mi km ) Precip ( " mm )
12:51 am 00:51 Clear 53 11.7 33 0.6 47 47 WNW 10 17 29.89 1012 10 16 N/A
1:51 am 01:51 Clear 51 10.6 35 1.7 54 54 NNW 9 15 29.88 1012 10 16 N/A
2:51 am 02:51 Clear 52 11.1 34 1.1 50 50 S 6 9 29.89 1012 10 16 N/A
3:51 am 03:51 Clear 46 7.8 33 0.6 61 61 E 5 7 29.90 1012 10 16 N/A
4:51 am 04:51 Clear 44 6.7 32 undefined 63 63 ESE 6 9 29.91 1013 10 16 N/A
5:51 am 05:51 Clear 44 6.7 32 undefined 63 63 N N/A 29.93 1014 10 16 N/A
6:51 am 06:51 Clear 45 7.2 31 -0.6 58 58 N N/A 29.96 1015 10 16 N/A
7:51 am 07:51 Sunny 45 7.2 33 0.6 63 63 ESE 3 6 30.00 1016 10 16 N/A
8:51 am 08:51 Sunny 53 11.7 32 undefined 45 45 SSW 3 6 30.00 1016 10 16 N/A
9:51 am 09:51 Sunny 55 12.8 33 0.6 44 44 W 5 7 30.02 1017 10 16 N/A
10:51 am 10:51 Cloudy 57 13.9 32 undefined 39 39 WNW 6 9 30.03 1017 10 16 N/A
11:51 am 11:51 Sunny 64 17.8 33 0.6 32 32 NW 9 15 30.01 1016 10 16 N/A
12:51 pm 12:51 Sunny 69 20.6 26 -3.3 20 20 NW 7 11 29.96 1014 10 16 N/A
1:51 pm 13:51 Sunny 70 21.1 24 -4.4 18 18 VRB 6 9 29.93 1014 10 16 N/A
2:51 pm 14:51 Sunny 71 21.7 22 -5.6 16 16 NW 3 6 29.92 1013 10 16 N/A
3:51 pm 15:51 Sunny 71 21.7 21 -6.1 15 15 N N/A 29.94 1014 10 16 N/A
4:51 pm 16:51 Mostly Cloudy 67 19.4 28 -2.2 23 23 E 21 33 29.99 1016 10 16 N/A
5:51 pm 17:51 Cloudy 65 18.3 27 -2.8 24 24 E 14 22 30.05 1018 10 16 N/A
6:51 pm 18:51 Clear 60 15.6 28 -2.2 30 30 ESE 8 13 30.08 1019 10 16 N/A
7:51 pm 19:51 Clear 58 14.4 33 0.6 39 39 ESE 15 24 30.13 1020 10 16 N/A
8:51 pm 20:51 Clear 58 14.4 30 -1.1 35 35 E 14 22 30.15 1021 10 16 N/A
9:51 pm 21:51 Clear 57 13.9 29 -1.7 34 34 ESE 9 15 30.17 1022 10 16 N/A
10:51 pm 22:51 Clear 55 12.8 30 -1.1 38 38 SE 8 13 30.16 1021 10 16 N/A
11:51 pm 23:51 Clear 52 11.1 30 -1.1 43 43 SE 12 19 30.16 1021 10 16 N/A

Powered by AerisWeather